This is the latest recevied weather packets stored in our database for station/object DJ8HS-1. If no packets are shown the sender has not sent any weather packets the latest 10 day(s).
| Time | Temp. | Humidity | Pressure | Rain* | Wind** | Luminosity | Snow |
|---|---|---|---|---|---|---|---|
| 1778244923 | 19.44° C | 43% | 0 hPa | 0 mm | - | - | - |
| 1778244623 | 19.44° C | 43% | 0 hPa | 0 mm | - | - | - |
| 1778244322 | 20° C | 42% | 0 hPa | 0 mm | - | - | - |
| 1778244022 | 20° C | 42% | 0 hPa | 0 mm | - | - | - |
| 1778243722 | 20° C | 41% | 0 hPa | 0 mm | - | - | - |
| 1778243421 | 21.11° C | 39% | 0 hPa | 0 mm | - | - | - |
| 1778243121 | 21.67° C | 36% | 0 hPa | 0 mm | - | - | - |
| 1778242821 | 22.22° C | 34% | 0 hPa | 0 mm | - | - | - |
| 1778242521 | 22.22° C | 31% | 0 hPa | 0 mm | - | - | - |
| 1778242220 | 22.78° C | 32% | 0 hPa | 0 mm | - | - | - |
| 1778241920 | 22.78° C | 33% | 0 hPa | 0 mm | - | - | - |
| 1778241620 | 22.78° C | 32% | 0 hPa | 0 mm | - | - | - |
| 1778241320 | 23.33° C | 30% | 0 hPa | 0 mm | - | - | - |
| 1778241019 | 23.33° C | 31% | 0 hPa | 0 mm | - | - | - |
| 1778240719 | 23.33° C | 31% | 0 hPa | 0 mm | - | - | - |
| 1778240419 | 23.33° C | 32% | 0 hPa | 0 mm | - | - | - |
| 1778240118 | 22.78° C | 34% | 0 hPa | 0 mm | - | - | - |
| 1778239818 | 22.78° C | 35% | 0 hPa | 0 mm | - | - | - |
| 1778239518 | 22.78° C | 35% | 0 hPa | 0 mm | - | - | - |
| 1778239217 | 22.22° C | 36% | 0 hPa | 0 mm | - | - | - |
| 1778238917 | 22.22° C | 35% | 0 hPa | 0 mm | - | - | - |
| 1778238617 | 22.78° C | 37% | 0 hPa | 0 mm | - | - | - |
| 1778238316 | 22.22° C | 38% | 0 hPa | 0 mm | - | - | - |
| 1778238016 | 22.22° C | 40% | 0 hPa | 0 mm | - | - | - |
| 1778237716 | 21.67° C | 40% | 0 hPa | 0 mm | - | - | - |
* Rain latest hour (hover to see other rain measurements)
** Current wind speed in m/s (hover to see current wind gust speed)